Branson, MO

11:36 PM CDT on March 24, 2017 (GMT -0500)
Branson

Weather History for KBBG - May, 2014

Change the Weather History Date:

Monday, May 12, 2014

  Actual Average (KHRO) Record (KHRO)
Temperature  
Mean Temperature 74 °F -  
Max Temperature 86 °F 75 °F 91 °F (1911)
Min Temperature 57 °F 55 °F 35 °F (1945)
Cooling Degree Days 9    
Growing Degree Days 24 (Base 50)    
Moisture  
Dew Point 65 °F    
Average Humidity 80    
Maximum Humidity 100    
Minimum Humidity 51    
Precipitation  
Precipitation 0.05 in - - ()
Sea Level Pressure  
Sea Level Pressure 29.90 in    
Wind  
Wind Speed 8 mph (SSE)    
Max Wind Speed 20 mph    
Max Gust Speed 29 mph    
Visibility 10 miles    
Events Rain , Thunderstorm    
Averages and records for this station are not official NWS values.
T = Trace of Precipitation, MM = Missing Value Source: NWS Daily Summary

Daily Weather History Graph

Daily Weather History Graph

Search for Another Location

Airport or City:

Trip Planner

Search our weather history database for the weather conditions in past years. The results will help you decide how hot, cold, wet, or windy it might be!

Date:

Astronomy

May. 12, 2014 Rise Set
Actual Time 6:08 AM CDT 8:10 PM CDT
Civil Twilight 5:39 AM CDT 8:39 PM CDT
Nautical Twilight 5:05 AM CDT 9:13 PM CDT
Astronomical Twilight 4:27 AM CDT 9:51 PM CDT
Moon 6:12 PM CDT (5/12) 4:43 AM CDT (5/12)
Length of Visible Light 14h 59m
Length of Day
14h 02m
Waxing Gibbous, 95% of the Moon is Illuminated
May 12
Waxing Gibbous
May 14
Full
May 21
Last Quarter
May 28
New
Jun 5
First Quarter

Hourly Weather History & Observations

Time (CDT) Temp. Heat Index Dew Point Humidity Pressure Visibility Wind Dir Wind Speed Gust Speed Precip Events Conditions
12:15 AM 73.4 °F - 66.2 °F 78% 29.85 in 10.0 mi SSE 8.1 mph - N/A   Mostly Cloudy
12:55 AM 73.4 °F - 66.2 °F 78% 29.86 in 10.0 mi SSE 8.1 mph - N/A   Mostly Cloudy
1:15 AM 73.4 °F - 66.2 °F 78% 29.85 in 10.0 mi SSE 10.4 mph - N/A   Scattered Clouds
1:35 AM 73.4 °F - 66.2 °F 78% 29.85 in 10.0 mi SE 9.2 mph - N/A   Clear
1:55 AM 71.6 °F - 66.2 °F 83% 29.85 in 10.0 mi SE 8.1 mph - N/A   Clear
2:15 AM 71.6 °F - 66.2 °F 83% 29.85 in 10.0 mi SSE 8.1 mph - N/A   Partly Cloudy
2:35 AM 71.6 °F - 66.2 °F 83% 29.84 in 10.0 mi SSE 8.1 mph - N/A   Mostly Cloudy
2:55 AM 71.6 °F - 66.2 °F 83% 29.83 in 10.0 mi Calm Calm - N/A   Mostly Cloudy
3:15 AM 69.8 °F - 66.2 °F 88% 29.84 in 10.0 mi Calm Calm - N/A   Mostly Cloudy
3:35 AM 71.6 °F - 66.2 °F 83% 29.85 in 10.0 mi Calm Calm - N/A   Overcast
3:55 AM 71.6 °F - 66.2 °F 83% 29.85 in 10.0 mi SE 8.1 mph - N/A   Overcast
4:15 AM 71.6 °F - 66.2 °F 83% 29.85 in 10.0 mi SE 9.2 mph - N/A   Overcast
4:35 AM 71.6 °F - 66.2 °F 83% 29.85 in 10.0 mi SE 8.1 mph - N/A   Overcast
4:55 AM 71.6 °F - 66.2 °F 83% 29.86 in 10.0 mi SE 11.5 mph - N/A   Overcast
5:15 AM 71.6 °F - 66.2 °F 83% 29.86 in 10.0 mi SSE 10.4 mph - N/A   Mostly Cloudy
5:35 AM 71.6 °F - 66.2 °F 83% 29.87 in 10.0 mi SSE 9.2 mph - N/A   Mostly Cloudy
5:55 AM 71.6 °F - 66.2 °F 83% 29.87 in 10.0 mi SSE 9.2 mph - N/A   Overcast
6:15 AM 71.6 °F - 66.2 °F 83% 29.88 in 10.0 mi SE 8.1 mph - N/A   Overcast
6:35 AM 71.6 °F - 66.2 °F 83% 29.89 in 10.0 mi SSE 3.5 mph - N/A   Overcast
6:45 AM 71.6 °F - 66.2 °F 83% 29.89 in 10.0 mi Calm Calm - N/A   Overcast
8:45 AM 78.8 °F - 68.0 °F 69% 29.93 in 10.0 mi South 3.5 mph - N/A   Mostly Cloudy
9:45 AM 80.6 °F 83.2 °F 68.0 °F 65% 29.94 in 10.0 mi South 8.1 mph 20.7 mph N/A   Mostly Cloudy
10:45 AM 82.4 °F 85.4 °F 68.0 °F 62% 29.95 in 10.0 mi South 15.0 mph 23.0 mph N/A   Mostly Cloudy
11:45 AM 84.2 °F 86.6 °F 66.2 °F 55% 29.95 in 10.0 mi South 12.7 mph 25.3 mph N/A   Mostly Cloudy
12:45 PM 82.4 °F 84.6 °F 66.2 °F 58% 29.92 in 10.0 mi South 19.6 mph 28.8 mph N/A   Scattered Clouds
1:45 PM 86.0 °F 88.2 °F 66.2 °F 51% 29.90 in 10.0 mi South 18.4 mph 25.3 mph N/A   Scattered Clouds
2:45 PM 84.2 °F 87.3 °F 68.0 °F 58% 29.89 in 10.0 mi SSE 13.8 mph 19.6 mph N/A   Mostly Cloudy
3:45 PM 86.0 °F 88.2 °F 66.2 °F 51% 29.85 in 10.0 mi SSE 11.5 mph 25.3 mph N/A   Mostly Cloudy
4:10 PM 84.2 °F 86.6 °F 66.2 °F 55% 29.85 in 10.0 mi SSE 8.1 mph 16.1 mph N/A Rain , Thunderstorm Light Thunderstorms and Rain
4:45 PM 82.4 °F 84.6 °F 66.2 °F 58% 29.86 in 10.0 mi SSE 12.7 mph 20.7 mph N/A   Overcast
5:45 PM 80.6 °F 83.2 °F 68.0 °F 65% 29.87 in 10.0 mi South 9.2 mph - N/A   Overcast
6:45 PM 64.4 °F - 62.6 °F 94% 29.94 in 6.0 mi South 11.5 mph - N/A Rain , Thunderstorm Light Thunderstorms and Rain
7:50 PM 64.4 °F - 62.6 °F 94% 29.93 in 9.0 mi Calm Calm - N/A Rain Light Rain
8:45 PM 64.4 °F - 62.6 °F 94% 29.94 in 10.0 mi Calm Calm - N/A Rain Light Rain
9:15 PM 64.4 °F - 62.6 °F 94% 29.97 in 10.0 mi Calm Calm - N/A Rain , Thunderstorm Light Rain
9:35 PM 64.4 °F - 62.6 °F 94% 29.96 in 8.0 mi Calm Calm - 0.01 in Rain Light Rain
9:55 PM 64.4 °F - 64.4 °F 100% 29.95 in 8.0 mi ESE 5.8 mph - 0.02 in Rain Light Rain
10:15 PM 64.4 °F - 62.6 °F 94% 29.96 in 10.0 mi SE 5.8 mph - N/A Rain Light Rain
10:35 PM 64.4 °F - 62.6 °F 94% 29.97 in 10.0 mi SSE 5.8 mph - 0.01 in Rain Light Rain
10:55 PM 64.4 °F - 62.6 °F 94% 29.97 in 6.0 mi SSE 8.1 mph - 0.01 in Rain Light Rain
11:15 PM 64.4 °F - 62.6 °F 94% 29.93 in 5.0 mi ESE 13.8 mph - 0.01 in Rain Light Rain
11:35 PM 62.6 °F - 62.6 °F 100% 30.01 in 10.0 mi West 13.8 mph 23.0 mph 0.01 in Rain Light Rain
11:55 PM 57.2 °F - 57.2 °F 100% 30.02 in 5.0 mi WNW 10.4 mph 19.6 mph 0.02 in Rain Light Rain